User: anonymous   Login
Location: Days
(41.3591°N, 106.7339°W)
Time: 13:50:09
(UTC+00:00)
Language:

XW-2C - Orbit

View from above orbital plane
View from above orbital plane
View from above satellite
View from above satellite

Ground track
Ground track

The orbit data is extracted from the following two-line orbital elements,

1 40906U 15049H   22176.10298178  .00005187  00000-0  24949-3 0  9994
2 40906  97.4926 179.4546 0013283 340.1759  92.4660 15.19161455374087
Epoch (UTC): 25 June 2022 02:28:17
Eccentricity: 0.0013283
inclination: 97.4926°
perigee height: 499 km
apogee height: 517 km
right ascension of ascending node: 179.4546°
argument of perigee: 340.1759°
revolutions per day: 15.19161455
mean anomaly at epoch: 92.4660°
orbit number at epoch: 37408

The dashed part of the orbit path shows where the satellite is in the earth's shadow,  

DLR